Theta_e
321 321 319 316 316 317 322 326 325 324 323 323 320 314 313 315 315 314 310 313 316 313 312 313 317 315 315 315 316 312 319 319 320 318 319 313 315 312 312 319 317 320 325 326 333
321 321 320 316 315 317 318 324 325 324 323 324 324 324 316 316 318 316 313 311 313 315 312 313 313 316 317 313 315 319 318 318 316 316 316 314 314 311 316 318 321 327 326 329 334
320 320 319 317 315 316 317 323 324 323 323 324 323 324 323 321 321 320 314 311 312 312 314 313 317 320 315 314 315 314 322 317 317 314 312 314 314 310 313 317 316 324 326 331 333
320 319 319 317 315 317 318 323 324 323 324 324 323 322 320 323 331 324 317 312 311 312 311 312 312 319 319 319 314 320 314 316 319 312 311 313 311 312 312 314 311 319 326 330 332
320 319 318 317 316 317 319 322 323 323 323 323 323 318 320 318 318 315 322 311 313 311 311 310 313 314 322 316 313 315 313 313 312 310 310 311 311 311 310 310 316 325 327 329 331
320 318 318 318 316 318 317 322 322 323 322 321 319 317 315 323 319 313 321 317 314 311 310 311 311 312 312 315 317 314 314 313 312 311 310 312 312 311 312 314 324 327 327 327 330
319 318 317 317 316 318 316 322 323 321 320 318 315 314 314 317 316 316 317 319 316 312 310 311 311 315 313 314 314 314 314 315 314 311 312 311 312 311 310 315 325 326 326 326 327
317 317 317 316 316 318 317 323 322 321 318 315 314 314 316 316 314 312 314 320 318 316 315 312 312 314 316 313 316 318 318 318 314 310 311 311 313 312 308 313 323 325 323 324 324
315 317 317 315 316 317 321 321 320 319 317 314 313 313 317 310 311 315 316 319 318 317 315 316 313 310 312 316 319 322 324 321 322 310 311 310 312 312 306 312 315 323 323 324 324
314 318 316 315 316 317 320 318 317 319 317 314 314 312 308 308 310 314 316 319 314 314 315 313 313 310 309 321 328 322 327 322 325 316 309 310 309 310 308 308 311 318 321 322 323
311 315 316 315 316 317 320 319 320 320 315 316 315 309 307 308 312 312 316 315 316 317 319 314 316 316 312 314 311 315 322 328 314 318 311 312 313 311 309 305 305 308 314 320 321
309 311 316 315 317 318 319 319 317 317 314 310 312 309 307 308 310 310 312 312 318 321 317 317 318 315 311 310 312 309 314 317 316 309 309 310 309 309 306 306 305 306 307 311 314
307 308 315 315 316 318 319 317 315 313 312 310 313 312 307 307 309 311 308 307 316 315 319 322 316 314 314 314 312 310 310 309 313 309 308 308 310 310 308 305 305 303 304 304 307
305 307 311 314 317 317 317 314 314 314 314 311 312 310 308 307 309 309 308 307 308 313 312 312 313 317 312 314 311 313 309 310 309 309 310 307 311 310 309 306 305 306 302 303 302
306 305 309 315 316 317 314 314 311 310 321 311 310 308 307 310 308 308 308 307 308 308 308 312 310 313 314 314 312 313 311 310 310 311 307 306 306 307 304 305 306 305 303 303 302
306 304 306 311 316 316 313 312 308 313 315 311 308 308 309 307 307 306 308 305 305 308 307 308 305 308 309 309 310 309 309 308 306 308 313 309 307 307 306 308 306 304 304 304 304
305 306 305 309 316 314 311 309 311 315 306 308 308 309 309 307 308 308 309 307 309 309 310 307 307 306 306 308 306 310 313 313 312 311 315 305 305 310 307 303 304 305 304 303 301
304 306 305 307 314 310 309 311 314 310 305 306 308 309 309 308 308 307 310 309 304 306 308 311 312 306 305 307 307 309 311 312 312 310 312 302 307 311 304 304 301 301 300 300 299
303 304 306 307 310 310 310 316 313 309 306 308 308 310 307 308 307 308 310 310 309 304 308 308 309 305 304 305 308 306 308 307 306 296 304 304 303 303 303 303 302 303 303 302 301
302 305 308 308 310 310 313 315 307 305 307 308 309 308 309 309 308 308 310 309 309 304 304 306 309 306 306 305 306 306 306 309 306 305 304 305 304 308 305 306 304 303 304 303 302
302 307 309 310 311 311 314 313 306 305 307 307 306 307 306 308 307 308 309 307 308 304 303 304 307 308 306 306 306 305 306 306 307 307 309 309 307 301 305 305 305 304 304 304 304
299 306 306 310 313 309 310 311 306 305 306 306 306 305 306 307 305 307 306 308 308 306 307 305 306 307 307 306 305 306 307 308 309 308 304 306 308 302 301 302 302 302 304 304 304
299 300 301 308 310 308 309 311 308 306 306 306 306 306 305 307 306 305 305 304 306 307 308 306 308 303 308 308 306 306 305 307 308 305 309 308 310 301 303 303 303 303 304 304 304
298 305 303 303 307 307 310 312 309 307 306 305 305 305 306 307 306 307 305 306 305 308 310 309 309 308 310 308 307 309 306 304 307 310 309 307 308 306 305 304 304 303 305 304 303
297 300 298 306 309 307 310 311 311 311 308 306 306 306 306 306 307 306 307 309 306 309 308 309 310 307 307 306 308 309 309 306 306 308 308 309 307 304 305 304 303 303 304 304 304
298 297 298 298 301 308 309 311 311 309 309 308 306 305 305 306 307 306 308 307 307 308 307 305 304 306 306 309 307 309 309 308 309 308 306 307 306 304 303 305 305 303 304 305 305
296 294 295 300 303 307 309 311 311 309 307 307 305 305 306 305 306 306 307 306 307 307 307 307 303 302 302 308 309 310 309 308 308 308 308 307 308 302 303 303 304 304 304 305 305
Wind_Speed
49 47 47 45 43 43 41 35 35 31 29 29 26 28 23 16 11 7 6 8 9 13 12 11 9 11 7 3 4 2 3 4 4 4 4 1 3 1 2 6 1 2 5 2 25
50 48 45 48 43 45 44 37 37 33 31 29 29 31 29 20 10 7 6 11 12 15 11 11 4 8 4 2 2 4 3 7 3 2 3 2 2 6 4 4 2 1 4 18 28
58 48 46 47 47 43 44 40 39 36 34 32 28 27 29 25 2 6 17 13 14 17 13 10 13 5 2 3 2 3 5 4 5 2 1 5 2 6 7 3 8 9 8 17 21
53 49 48 45 45 42 43 41 41 37 35 32 29 25 24 24 10 7 27 16 15 15 13 10 4 7 4 5 4 4 5 5 3 1 4 3 4 4 7 6 4 9 17 19 20
53 52 47 46 45 42 42 41 40 39 34 31 28 25 23 4 6 2 23 22 14 15 14 6 6 5 8 7 5 4 5 5 2 7 5 2 8 7 7 2 3 11 15 16 19
47 51 44 45 46 43 44 38 40 38 33 30 29 31 8 10 3 5 16 28 16 12 9 7 8 5 5 5 8 6 5 2 4 4 2 5 3 2 5 6 6 11 14 12 17
55 53 45 46 44 41 48 41 42 37 34 31 31 25 3 8 4 7 15 30 20 12 6 4 4 4 5 5 2 4 1 3 6 4 4 2 6 8 4 4 8 9 8 9 13
25 42 43 45 43 42 45 47 45 40 34 35 31 13 4 8 3 8 15 19 22 13 7 6 8 6 5 5 4 4 2 6 3 6 2 6 9 11 6 9 9 9 7 8 9
15 44 39 42 42 46 45 46 41 38 37 34 20 7 3 5 7 11 16 20 20 12 5 6 4 3 3 7 3 2 4 9 6 6 4 6 6 8 7 8 9 9 9 9 8
15 40 42 41 45 46 45 45 42 41 33 20 10 5 5 7 11 14 14 27 11 11 5 3 3 4 2 8 9 6 11 4 13 5 5 6 8 10 4 7 11 9 8 9 10
4 22 42 42 46 48 47 40 13 8 17 4 13 3 5 12 17 9 24 16 9 5 8 0 3 15 9 8 3 5 4 15 4 7 5 11 14 10 7 5 8 8 9 12 12
7 6 40 43 46 50 44 9 15 13 11 4 16 5 5 8 7 6 22 7 10 13 8 3 17 8 7 4 5 4 4 4 4 3 4 4 10 9 6 6 8 11 9 12 8
10 5 23 43 46 47 37 19 25 34 6 1 6 4 5 6 5 11 8 5 13 11 16 12 3 8 7 3 5 5 4 2 4 1 3 2 9 10 7 6 6 8 9 6 11
11 7 3 42 40 38 21 33 39 15 5 7 7 4 4 7 4 5 10 8 5 12 11 5 5 20 8 16 9 8 6 3 2 2 4 2 5 12 11 11 10 13 9 12 11
11 17 5 40 27 22 22 38 26 9 6 13 5 11 7 10 13 6 7 4 9 7 8 7 10 11 17 11 11 4 7 6 4 3 4 4 4 5 6 10 12 10 11 12 13
8 14 12 12 26 34 41 38 13 3 5 10 8 9 9 2 2 5 6 4 5 6 2 6 3 10 8 8 12 9 6 6 5 3 3 9 6 5 8 13 4 8 11 13 15
6 16 16 13 17 43 47 12 6 6 6 8 8 13 18 6 4 7 15 8 7 7 8 3 3 2 5 6 4 12 14 2 2 2 12 3 5 17 7 7 7 10 12 10 7
5 12 15 22 32 49 34 10 7 11 9 5 9 18 12 13 3 4 14 13 8 6 8 10 8 11 5 6 5 12 15 7 7 4 7 4 8 10 11 10 7 8 7 7 8
5 5 10 25 26 46 16 17 11 13 10 10 15 20 6 13 8 8 19 23 17 12 9 6 7 3 4 4 12 5 11 5 5 1 3 5 9 8 9 10 7 10 7 10 8
6 3 10 28 30 34 16 18 4 7 12 20 8 15 17 23 7 13 19 20 16 11 2 5 3 1 2 4 1 9 10 4 1 2 5 5 5 9 3 11 11 9 12 10 7
4 2 4 31 29 12 19 13 5 5 19 9 7 8 11 18 9 17 18 2 20 10 4 6 4 0 6 8 9 3 5 4 4 6 6 8 8 8 11 11 12 13 10 6 8
2 2 2 32 9 9 12 7 5 7 3 5 6 5 17 19 6 15 15 12 16 15 12 6 6 4 8 2 2 2 7 15 6 13 5 2 11 3 8 8 7 10 6 6 7
2 1 4 24 5 10 5 4 3 8 9 7 4 4 6 13 5 6 7 6 15 20 21 9 3 3 5 3 3 7 7 12 15 3 12 7 18 4 5 6 6 7 6 6 7
2 2 1 1 2 8 8 18 7 1 5 5 6 7 10 10 2 13 8 6 13 18 10 14 4 9 13 9 7 3 3 3 10 11 16 7 20 6 5 8 6 6 5 6 6
1 1 2 2 11 8 12 14 18 7 2 6 3 14 11 6 15 7 6 4 1 8 7 11 18 6 1 6 8 9 9 8 7 15 8 25 15 8 11 8 6 5 5 7 8
2 3 1 1 2 10 17 12 29 10 11 12 11 13 8 9 16 8 10 7 8 2 9 1 3 5 1 3 5 5 13 13 16 20 14 22 20 5 2 3 5 8 8 9 11
2 1 1 1 2 4 12 18 28 15 3 11 11 10 10 8 14 9 8 7 10 12 12 8 6 4 7 3 3 4 14 15 12 18 16 16 21 5 6 9 10 9 12 14 15
Wind_Direction
203 205 200 202 205 208 203 201 198 196 191 192 185 188 191 189 167 182 189 175 197 174 167 166 145 120 116 77 75 107 90 155 200 170 266 101 184 48 119 119 209 179 157 216 167
207 201 197 201 201 207 205 200 199 193 194 191 192 198 200 203 198 262 187 176 191 181 163 163 108 89 63 82 51 101 130 193 197 209 307 273 214 173 143 129 235 188 46 143 158
198 198 196 198 200 204 204 199 199 191 193 193 192 193 195 196 54 237 191 178 178 172 184 182 140 89 128 126 159 165 188 184 231 251 106 291 260 180 133 216 211 194 159 154 163
195 198 196 196 197 198 199 195 192 187 193 190 189 184 182 164 196 201 197 178 173 165 159 142 123 128 140 156 176 159 202 179 231 341 16 310 310 230 194 215 257 196 165 158 171
196 198 197 193 195 193 196 193 188 186 186 186 180 171 156 189 241 190 189 175 167 155 164 143 157 141 169 171 129 188 180 185 283 342 299 275 241 236 236 275 70 132 159 176 180
196 194 196 192 194 191 194 186 185 181 182 178 169 159 150 185 219 190 183 187 165 148 153 160 178 168 125 166 179 201 176 159 233 252 307 273 261 167 258 134 127 153 180 183 186
188 189 196 195 195 189 190 183 179 179 176 166 160 164 82 187 170 201 184 185 174 152 127 117 133 135 120 129 152 95 174 216 230 167 257 175 280 214 189 143 165 186 191 189 193
171 180 192 194 194 186 184 172 173 171 170 159 159 151 197 229 245 188 167 173 186 174 95 135 92 115 132 117 57 131 132 224 188 154 258 133 274 270 171 158 194 203 205 205 199
183 188 191 191 187 185 180 169 168 165 162 162 148 128 234 163 169 173 171 152 163 173 109 115 77 126 85 113 85 249 207 217 298 205 142 169 270 269 170 188 201 205 209 210 226
193 189 189 189 186 180 170 165 164 154 143 133 148 135 176 191 146 155 167 162 138 117 80 46 94 135 141 172 205 185 208 216 224 213 194 215 239 282 260 200 217 205 209 220 219
142 165 185 186 184 177 159 142 147 165 148 174 160 135 129 140 135 152 147 132 118 132 176 48 180 199 175 187 87 158 180 233 250 213 201 237 233 238 251 240 256 232 216 225 226
221 132 185 186 181 174 161 163 155 139 123 27 141 101 136 141 116 157 155 123 156 178 124 67 224 181 163 125 195 160 182 246 296 301 189 279 252 241 213 231 218 226 234 224 225
226 291 177 182 178 166 173 153 133 135 111 123 182 130 149 130 128 173 141 115 149 150 176 203 164 189 198 180 197 216 181 155 241 293 249 342 259 245 249 228 230 231 222 220 226
236 272 210 180 167 166 171 151 151 144 90 162 178 201 128 135 119 158 160 133 153 165 158 210 200 187 174 219 178 214 148 129 45 311 245 202 278 227 226 232 220 228 215 226 224
194 248 289 182 165 174 156 151 150 98 170 151 160 159 152 158 135 226 181 65 151 152 144 207 173 179 207 199 177 170 147 166 159 101 359 230 267 242 167 238 235 227 223 229 228
193 238 247 205 170 164 155 154 146 98 193 185 144 151 137 164 113 113 137 62 138 120 85 191 176 167 189 172 184 142 59 32 41 109 246 216 196 230 213 229 231 228 230 224 231
249 204 234 235 167 161 154 151 114 186 142 181 168 164 162 144 110 153 177 158 155 134 186 92 214 239 153 142 127 163 153 174 213 219 236 148 167 243 261 238 229 218 235 237 233
241 211 232 247 167 157 147 148 171 170 185 139 134 143 169 135 173 156 157 185 227 144 139 170 207 180 187 187 167 191 183 160 197 223 251 82 227 247 218 249 222 256 259 275 241
231 232 217 236 194 153 148 176 198 175 144 125 118 153 140 185 140 147 190 198 189 178 158 145 241 35 161 150 156 195 208 187 108 32 50 206 272 300 249 265 255 252 256 247 238
184 186 216 211 187 156 167 188 155 144 117 139 149 184 175 179 143 183 184 202 195 178 36 189 130 187 118 101 170 172 158 174 145 206 258 273 265 219 240 226 239 241 235 232 199
180 192 211 193 171 168 186 177 128 160 136 142 155 159 172 181 166 186 191 251 188 159 126 154 115 31 122 202 174 149 173 196 166 164 217 254 258 213 215 223 236 238 254 263 197
124 209 165 180 181 180 181 175 137 143 136 121 105 95 174 172 155 194 203 196 185 166 189 185 124 157 207 290 92 231 190 198 198 218 230 186 259 215 245 263 276 273 228 172 157
117 270 355 187 179 180 162 198 147 147 162 151 129 138 142 163 177 188 173 192 180 173 188 167 183 78 10 2 238 196 209 204 211 82 213 202 256 200 239 244 255 272 245 212 168
118 159 280 285 55 160 176 192 182 87 141 137 128 113 120 170 178 186 179 194 182 195 135 151 123 171 215 233 128 199 206 245 198 220 231 228 252 296 283 264 306 271 228 182 185
40 67 8 178 211 162 168 187 188 160 162 145 75 163 153 138 190 184 155 101 106 182 153 166 207 164 277 227 188 186 188 189 201 227 197 246 248 216 247 266 249 241 189 180 189
126 130 199 333 27 196 183 192 190 189 159 197 160 172 158 158 193 160 145 171 170 129 171 322 227 115 191 327 163 188 203 201 212 230 237 251 258 148 150 180 225 220 187 212 206
58 353 189 61 14 207 198 190 203 179 299 192 141 148 179 192 180 171 161 131 161 169 181 156 132 108 239 135 154 269 210 201 214 218 223 236 243 156 225 244 241 203 195 212 216